Eagle, AK

5:16 AM AKDT on April 25, 2017 (GMT -0800)
Eagle

Weather History for PAEG - November, 2012

Change the Weather History Date:

Thursday, November 15, 2012

  Actual Average (PABN) Record (PABN)
Temperature  
Mean Temperature -17 °F -  
Max Temperature -5 °F 11 °F 39 °F (1996)
Min Temperature -31 °F 4 °F -14 °F (2006)
Degree Days  
Heating Degree Days 82    
Moisture  
Dew Point -18 °F    
Average Humidity 75    
Maximum Humidity 79    
Minimum Humidity 69    
Precipitation  
Precipitation 0.00 in - - ()
Sea Level Pressure  
Sea Level Pressure 30.07 in    
Wind  
Wind Speed 0 mph (NW)    
Max Wind Speed 4 mph    
Max Gust Speed -    
Visibility 10 miles    
Events      
Averages and records for this station are not official NWS values.
T = Trace of Precipitation, MM = Missing Value Source: NWS Daily Summary

Daily Weather History Graph

Daily Weather History Graph

Search for Another Location

Airport or City:

Trip Planner

Search our weather history database for the weather conditions in past years. The results will help you decide how hot, cold, wet, or windy it might be!

Date:

Astronomy

Nov. 15, 2012 Rise Set
Actual Time 9:01 AM AKST 3:16 PM AKST
Civil Twilight 7:58 AM AKST 4:18 PM AKST
Nautical Twilight 6:56 AM AKST 5:21 PM AKST
Astronomical Twilight 5:58 AM AKST 6:19 PM AKST
Moon 11:45 AM AKST (11/15) 4:39 PM AKST (11/15)
Length of Visible Light 8h 20m
Length of Day
6h 14m
Waxing Crescent, 6% of the Moon is Illuminated
Nov 15
Waxing Crescent
Nov 20
First Quarter
Nov 28
Full
Dec 6
Last Quarter
Dec 12
New

Hourly Weather History & Observations

Time (AKST) Temp. Windchill Dew Point Humidity Pressure Visibility Wind Dir Wind Speed Gust Speed Precip Events Conditions
12:53 AM -5.1 °F - -11.0 °F 76% 29.90 in 10.0 mi Calm Calm - N/A   Overcast
1:53 AM -6.0 °F - -11.0 °F 79% 29.91 in 10.0 mi Calm Calm - N/A   Overcast
3:53 AM -9.9 °F - -15.0 °F 78% 29.96 in 10.0 mi Calm Calm - N/A   Mostly Cloudy
4:53 AM -9.9 °F - -15.0 °F 78% 29.98 in 10.0 mi Calm Calm - N/A   Overcast
5:53 AM -9.9 °F -19.2 °F -15.0 °F 78% 29.99 in 10.0 mi SW 3.5 mph - N/A   Scattered Clouds
6:53 AM -9.0 °F - -14.1 °F 79% 30.00 in 10.0 mi Calm Calm - N/A   Mostly Cloudy
7:53 AM -9.0 °F - -14.1 °F 79% 30.01 in 10.0 mi Calm Calm - N/A   Partly Cloudy
8:53 AM -9.0 °F - -15.0 °F 75% 30.03 in 10.0 mi Calm Calm - N/A   Clear
9:53 AM -9.0 °F - -14.1 °F 79% 30.04 in 10.0 mi Calm Calm - N/A   Mostly Cloudy
10:53 AM -7.1 °F - -13.0 °F 75% 30.06 in 10.0 mi Calm Calm - N/A   Partly Cloudy
11:53 AM -6.0 °F - -13.0 °F 72% 30.06 in 10.0 mi Calm Calm - N/A   Clear
12:53 PM -6.0 °F - -13.0 °F 72% 30.07 in 10.0 mi Calm Calm - N/A   Scattered Clouds
1:53 PM -6.0 °F - -13.0 °F 72% 30.08 in 10.0 mi Calm Calm - N/A   Mostly Cloudy
2:53 PM -7.1 °F -15.9 °F -13.0 °F 75% 30.09 in 10.0 mi NNE 3.5 mph - N/A   Partly Cloudy
3:53 PM -9.0 °F - -16.1 °F 71% 30.10 in 10.0 mi Calm Calm - N/A   Clear
4:53 PM -11.9 °F - -17.0 °F 78% 30.12 in 10.0 mi Calm Calm - N/A   Clear
5:53 PM -18.0 °F - -24.0 °F 74% 30.13 in 10.0 mi Calm Calm - N/A   Clear
6:53 PM -23.1 °F - -27.9 °F 78% 30.16 in 10.0 mi Calm Calm - N/A   Clear
7:53 PM -26.0 °F - -33.0 °F 69% 30.17 in 10.0 mi Calm Calm - N/A   Clear
8:53 PM -27.0 °F - -34.1 °F 69% 30.19 in 10.0 mi Calm Calm - N/A   Clear
9:53 PM -29.0 °F - -36.0 °F 69% 30.21 in 10.0 mi Calm Calm - N/A   Clear
10:53 PM -29.9 °F - - N/A% 30.22 in 10.0 mi Calm Calm - N/A   Clear
11:53 PM -31.0 °F - - N/A% 30.23 in 10.0 mi Calm Calm - N/A   Clear